Home   Weather   Stuttgart   Past weeks
Flag for Germany

Past Weather in Stuttgart, Baden-Württemberg, Germany — Yesterday and Last 2 Weeks

Now
54 °F

Strong thunderstorms. Passing clouds.


Feels Like: 53 °F
Forecast: 62 / 53 °F
Wind: 5 mph from Northwest

Location: Stuttgart-Echterdingen

Current Time: May 20, 2019 at 12:48:14 am

Latest Report: May 20, 2019 at 12:20 am


Visibility: 3 mi

Pressure: 29.68 "Hg

Humidity: 94%

Dew Point: 52 °F

Location of StuttgartLocation

Past Weather in Stuttgart — Graph

°F

Stuttgart Temperature Yesterday

Maximum temperature yesterday: 68 °F (at 5:20 pm)
Minimum temperature yesterday: 52 °F (at 2:50 am)
Average temperature yesterday: 58 °F

High & Low Weather Summary for the Past Weeks

 TemperatureHumidityPressure
High70 °F (May 18, 2:20 pm)100% (May 11, 2:50 am)30.54 "Hg (May 11, 2:50 am)
Low32 °F (May 6, 4:20 am)31% (May 7, 4:50 pm)29.53 "Hg (May 9, 1:20 pm)
Average50 °F69%29.97 "Hg
* Reported May 4 11:20 pm — May 19 11:50 pm, Stuttgart. Weather by CustomWeather, © 2019

Note: Actual official high and low records may vary slightly from our data, if they occured in-between our weather recording intervals... More about our weather records

Advertising

Stuttgart Weather History for the Previous 24 Hours

Scroll right to see more
 ConditionsComfort  
Time TempWeatherWind HumidityBarometerVisibility
11:50 pm
Sun, May 19
55 °FThunderstorms. Passing clouds.7 mph88%29.65 "Hg4 mi
11:20 pm55 °FStrong thunderstorms. Passing clouds.13 mph88%29.68 "Hg3 mi
10:50 pm55 °FThundershowers. Passing clouds.6 mph94%29.65 "HgN/A
10:20 pm55 °FThundershowers. Passing clouds.2 mph94%29.65 "HgN/A
9:50 pm55 °FPassing clouds.2 mph94%29.65 "HgN/A
9:20 pm55 °FPassing clouds.2 mph94%29.62 "HgN/A
8:50 pm59 °FPassing clouds.3 mph82%29.62 "HgN/A
8:20 pm59 °FLight rain. Passing clouds.5 mph88%29.62 "HgN/A
7:50 pm61 °FSprinkles. Passing clouds.14 mph77%29.62 "HgN/A
7:20 pm55 °FThundershowers. Passing clouds.3 mph88%29.62 "HgN/A
6:50 pm57 °FThunderstorms. Partly sunny.6 mph88%29.62 "HgN/A
6:20 pm55 °FRain. Cloudy.17 mph82%29.62 "Hg3 mi
5:50 pm68 °FThundershowers. Scattered clouds.12 mph60%29.62 "HgN/A
5:20 pm68 °FThundershowers. Passing clouds.10 mph56%29.62 "HgN/A
4:50 pm66 °FPassing clouds.10 mph60%29.62 "HgN/A
4:20 pm66 °FPassing clouds.9 mph60%29.62 "HgN/A
3:50 pm66 °FPassing clouds.7 mph60%29.62 "HgN/A
3:20 pm66 °FScattered clouds.8 mph56%29.62 "HgN/A
2:50 pm66 °FScattered clouds.7 mph60%29.65 "HgN/A
2:20 pm66 °FScattered clouds.6 mph64%29.65 "HgN/A
1:50 pm66 °FScattered clouds.9 mph60%29.65 "HgN/A
1:20 pm64 °FScattered clouds.8 mph68%29.65 "HgN/A
12:50 pm64 °FScattered clouds.9 mph64%29.65 "HgN/A
12:20 pm63 °FScattered clouds.5 mph64%29.65 "HgN/A
11:50 am63 °FScattered clouds.5 mph68%29.65 "HgN/A
11:20 am61 °FScattered clouds.6 mph72%29.65 "HgN/A
10:50 am59 °FBroken clouds.3 mph77%29.68 "HgN/A
10:20 am59 °FPartly sunny.2 mph77%29.68 "HgN/A
9:50 am57 °FPartly sunny.3 mph82%29.68 "HgN/A
9:20 am57 °FScattered clouds.2 mph82%29.68 "HgN/A
8:50 am57 °FScattered clouds.2 mph82%29.68 "HgN/A
8:20 am57 °FPassing clouds.5 mph82%29.68 "HgN/A
7:50 am57 °FPassing clouds.3 mph82%29.68 "HgN/A
7:20 am55 °FPassing clouds.5 mph88%29.68 "HgN/A
6:50 am55 °FScattered showers. Passing clouds.6 mph82%29.68 "HgN/A
6:20 am52 °FPassing clouds.6 mph94%29.68 "HgN/A
5:50 am52 °FSunny.2 mph94%29.68 "Hg10 mi
5:20 am52 °FPassing clouds.3 mph94%29.68 "HgN/A
4:50 am52 °FClear.2 mph94%29.65 "Hg10 mi
4:20 am52 °FClear.2 mph94%29.65 "Hg10 mi
3:50 am52 °FClear.2 mph94%29.68 "Hg10 mi
3:20 am52 °FPassing clouds.3 mph94%29.65 "HgN/A
2:50 am52 °FClear.3 mph94%29.68 "Hg10 mi
2:20 am54 °FClear.2 mph88%29.68 "Hg10 mi
1:50 am54 °FClear.2 mph88%29.68 "Hg10 mi
1:20 am54 °FLight rain. Clear.6 mph88%29.68 "HgN/A
12:50 am54 °FLight rain. Clear.9 mph88%29.68 "HgN/A
12:20 am54 °FClear.2 mph88%29.71 "Hg10 mi
Weather by CustomWeather, © 2019

See weather overview